Location: Bourg-d�Oueil
(42.8588°N, 0.4991°E)
Time: 19:59:34
(UTC+00:00)

Iridium 2 - Pass Details

Date: 16 June 2021
Orbit: 502 x 511 km, 85.5° (Epoch: 01 August)

Event Time Altitude Azimuth Distance (km) Brightness Sun altitude
Exits shadow 23:22:55 51° 285° (WNW) 642 4.2 -23.2°
Drops below altitude 10° 23:26:29 10° 354° (N) 1,727 7.5 -23.3°
Sets 23:28:39 0° 359° (N) 2,616 8.7 -23.4°
